Terug naar catalogus

THORAD DELTA 1 DEB

ActiefLEO
NORAD 14880·DEBRIS·🇺🇸 United States

Gelanceerd Nov 15, 1974 vanaf Vandenberg Space Force Base

Loading…

Volgende Passages (komende 24 uur)

TLE

VersSource: Space-Track

Epoch: Sep 14, 2026, 07:23 UTC

1 14880U 74089ET  26257.30783332 -.00000034  00000-0  42968-4 0  9991
2 14880 101.2236 183.1502 0152100 214.6497 298.9211 12.30550362 20360

Volg THORAD DELTA 1 DEB in realtime met AllMySat

Download on the App Store